Flight Track Log - Related Links

Times and Time Zones

All times are in EDT time to prevent confusion due to time zone crossing. See the SKW6330 flight status page for this flight to view local times or setup timezone preferences in your user account.

Time Position Orientation Groundspeed Altitude Reporting Facility
EDT Latitude Longitude Course Direction KTS MPH feet Rate Location/Type
Mon 19:52:59 33.9500 -118.4500 335° Northwest 137 158 1,600  Level Southern California TRACON
Mon 19:53:14 33.9497 -118.4556 267° West 144 166 2,000 1,481 Climbing Los Angeles Center
Mon 19:54:16 33.9625 -118.5125 285° West 173 199 3,500 1,645 Climbing Los Angeles Center
Mon 19:55:18 33.9861 -118.5711 296° West 182 209 5,400 1,548 Climbing Los Angeles Center
Mon 19:56:00 34.2044 -118.5439 338° Northwest  Level FlightAware Approximate
Mon 19:56:20 34.0192 -118.6197 309° West 199 229 6,700  Level Los Angeles Center
Mon 19:57:00 34.2741 -118.5787 338° Northwest  Level FlightAware Approximate
Mon 19:57:22 34.0789 -118.6297 352° North 217 250 6,900  Level Los Angeles Center
Mon 19:58:00 34.3453 -118.6159 335° Northwest  Level FlightAware Approximate
Mon 19:58:24 34.1397 -118.6414 351° North 225 259 8,400  Level Los Angeles Center
Mon 19:59:26 34.1956 -118.6525 351° North 211 243 10,100 1,500 Climbing Los Angeles Center
Mon 20:00:28 34.2494 -118.6606 353° North 198 228 11,500 919 Climbing Los Angeles Center
Mon 20:01:30 34.3200 -118.6731 352° North 213 245 12,000 242 Climbing Los Angeles Center
Mon 20:02:32 34.3842 -118.6825 353° North 228 262 12,000 48 Level Los Angeles Center
Mon 20:03:34 34.4497 -118.6931 352° North 239 275 12,100 339 Climbing Los Angeles Center
Mon 20:04:36 34.5144 -118.7128 346° North 240 276 12,700 484 Climbing Los Angeles Center
Mon 20:05:38 34.5708 -118.7464 334° Northwest 229 264 13,100 145 Climbing Los Angeles Center
Mon 20:06:40 34.6344 -118.7797 337° Northwest 248 285 13,000 145 Descending Los Angeles Center
Mon 20:07:42 34.7097 -118.8153 339° North 240 276 13,400 484 Climbing Los Angeles Center
Mon 20:08:44 34.7614 -118.8422 337° Northwest 209 241 14,000 726 Climbing Los Angeles Center
Mon 20:09:46 34.8153 -118.8689 338° Northwest 209 241 14,900 1,016 Climbing Los Angeles Center
Mon 20:10:48 34.8661 -118.8856 345° North 193 222 16,100 1,016 Climbing Los Angeles Center
Mon 20:11:50 34.9167 -118.9017 345° North 192 221 17,000 1,065 Climbing Los Angeles Center
Mon 20:12:52 34.9797 -118.9236 344° North 197 227 18,300 1,016 Climbing Los Angeles Center
Mon 20:13:54 35.0325 -118.9425 344° North 199 229 19,100 774 Climbing Los Angeles Center
Mon 20:14:56 35.0886 -118.9567 348° North 204 235 19,900 432 Climbing Los Angeles Center
Mon 20:15:59 35.1494 -118.9603 357° North 216 249 20,000 48 Climbing Los Angeles Center
Mon 20:17:00 35.2186 -118.9642 357° North 240 276 20,000  Level Los Angeles Center
Mon 20:18:03 35.2872 -118.9703 356° North 246 283 20,000  Level Los Angeles Center
Mon 20:19:05 35.3686 -118.9758 357° North 246 283 20,000  Level Los Angeles Center
Mon 20:20:07 35.4358 -118.9825 355° North 245 282 20,000  Level Los Angeles Center
Mon 20:21:09 35.5036 -118.9883 356° North 244 281 20,000  Level Los Angeles Center
Mon 20:22:11 35.5717 -118.9936 356° North 245 282 20,000  Level Los Angeles Center
Mon 20:23:13 35.6400 -118.9986 357° North 245 282 20,000  Level Los Angeles Center
Mon 20:23:38 35.6647 -119.0019 354° North 245 282 20,000  Level Oakland Center
Mon 20:24:39 35.7469 -119.0089 356° North 246 283 20,000 -197 Level Oakland Center
Mon 20:25:40 35.8142 -119.0133 357° North 245 282 19,600 -984 Descending Oakland Center
Mon 20:26:41 35.8767 -119.0189 356° North 239 275 18,000 -1,561 Descending Oakland Center
Mon 20:27:43 35.9319 -119.0303 351° North 224 258 16,400 -1,610 Descending Oakland Center
Mon 20:28:44 35.9842 -119.0550 339° North 212 244 14,700 -1,230 Descending Oakland Center
Mon 20:29:45 36.0358 -119.0794 339° North 204 235 13,900 -393 Descending Oakland Center
Mon 20:30:46 36.0892 -119.1061 338° Northwest 204 235 13,900 49 Level Oakland Center
Mon 20:31:48 36.1414 -119.1306 339° North 203 234 14,000 -146 Climbing Oakland Center
Mon 20:32:49 36.1942 -119.1561 339° North 203 234 13,600 -984 Descending Oakland Center
Mon 20:33:50 36.2594 -119.1847 341° North 209 241 12,000 -1,377 Descending Oakland Center
Mon 20:34:51 36.3108 -119.2103 338° Northwest 201 231 10,800 -1,268 Descending Oakland Center
Mon 20:35:53 36.3594 -119.2419 332° Northwest 207 238 9,400 -1,220 Descending Oakland Center
Mon 20:36:54 36.3994 -119.2886 317° Northwest 198 228 8,300 -984 Descending Oakland Center
Mon 20:37:55 36.4386 -119.3328 318° Northwest 191 220 7,400 -836 Descending Oakland Center
Mon 20:38:56 36.4778 -119.3747 319° Northwest 187 215 6,600 -885 Descending Oakland Center
Mon 20:39:57 36.5164 -119.4200 317° Northwest 191 220 5,600 -927 Descending Oakland Center
Mon 20:40:59 36.5564 -119.4650 318° Northwest 194 223 4,700 -878 Descending Oakland Center
Mon 20:42:00 36.5950 -119.5097 317° Northwest 191 220 3,800 -934 Descending Oakland Center
Mon 20:43:01 36.6419 -119.5628 318° Northwest 192 221 2,800 -541 Descending Oakland Center
Mon 20:44:02 36.6889 -119.5914 334° Northwest 189 217 2,700 -98 Descending Oakland Center

Login

Don't have an account? Register now (free) for customized features, flight alerts, and more!